Precipitable_Water
0.50 0.58 0.61 0.60 0.61 0.61 0.61 0.59 0.58 0.58 0.56 0.54 0.58 0.60 0.61 0.64 0.67 0.69 0.62 0.76 0.66 0.57 0.62 0.69 0.72 0.67 0.71 0.71 0.60 0.68 0.68 0.68 0.65 0.56 0.52 0.51 0.50 0.53 0.51 0.54 0.50 0.48 0.45 0.43 0.45 0.39 0.33 0.56 0.55 0.45 0.50 0.52 0.50 0.48
0.49 0.51 0.59 0.60 0.61 0.63 0.62 0.60 0.59 0.59 0.58 0.53 0.56 0.58 0.60 0.59 0.62 0.65 0.52 0.67 0.76 0.62 0.59 0.70 0.72 0.77 0.78 0.78 0.71 0.69 0.65 0.65 0.68 0.58 0.57 0.57 0.50 0.53 0.51 0.42 0.59 0.46 0.52 0.47 0.48 0.45 0.57 0.58 0.56 0.58 0.57 0.52 0.50 0.47
0.51 0.49 0.49 0.54 0.56 0.58 0.62 0.60 0.63 0.62 0.60 0.55 0.55 0.58 0.61 0.61 0.59 0.59 0.53 0.57 0.63 0.57 0.55 0.58 0.58 0.72 0.80 0.80 0.86 0.62 0.66 0.71 0.68 0.74 0.62 0.58 0.49 0.55 0.45 0.46 0.52 0.56 0.61 0.53 0.52 0.54 0.58 0.58 0.59 0.58 0.57 0.53 0.49 0.46
0.59 0.53 0.50 0.49 0.54 0.59 0.58 0.58 0.63 0.63 0.61 0.56 0.56 0.57 0.61 0.64 0.61 0.60 0.51 0.54 0.53 0.53 0.42 0.49 0.68 0.62 0.77 0.77 0.77 0.78 0.72 0.75 0.72 0.67 0.57 0.54 0.49 0.59 0.49 0.53 0.51 0.55 0.57 0.52 0.51 0.55 0.57 0.58 0.60 0.55 0.50 0.48 0.46 0.45
0.58 0.58 0.56 0.52 0.51 0.53 0.59 0.62 0.61 0.60 0.58 0.54 0.56 0.59 0.60 0.63 0.60 0.59 0.58 0.55 0.56 0.47 0.40 0.42 0.54 0.63 0.65 0.71 0.70 0.72 0.67 0.63 0.58 0.52 0.50 0.47 0.54 0.53 0.54 0.54 0.47 0.54 0.49 0.45 0.42 0.52 0.53 0.55 0.60 0.54 0.48 0.49 0.49 0.46
0.54 0.59 0.59 0.58 0.55 0.53 0.53 0.54 0.56 0.56 0.54 0.52 0.52 0.57 0.63 0.63 0.61 0.57 0.42 0.52 0.55 0.59 0.44 0.36 0.52 0.50 0.55 0.57 0.55 0.55 0.58 0.59 0.55 0.49 0.50 0.53 0.59 0.52 0.43 0.40 0.47 0.53 0.57 0.57 0.49 0.54 0.57 0.57 0.53 0.53 0.50 0.48 0.47 0.46
0.54 0.58 0.59 0.60 0.60 0.58 0.54 0.53 0.52 0.51 0.51 0.50 0.52 0.59 0.63 0.62 0.60 0.44 0.33 0.42 0.55 0.61 0.43 0.35 0.36 0.46 0.53 0.54 0.53 0.53 0.57 0.53 0.51 0.46 0.46 0.48 0.49 0.52 0.43 0.38 0.45 0.51 0.54 0.55 0.55 0.50 0.47 0.48 0.48 0.52 0.50 0.49 0.48 0.47
0.50 0.56 0.59 0.61 0.62 0.61 0.58 0.52 0.52 0.49 0.49 0.50 0.58 0.63 0.62 0.60 0.54 0.44 0.51 0.67 0.69 0.53 0.48 0.33 0.31 0.36 0.49 0.40 0.40 0.51 0.46 0.49 0.48 0.46 0.47 0.44 0.48 0.47 0.36 0.43 0.47 0.48 0.50 0.49 0.49 0.53 0.52 0.53 0.51 0.49 0.49 0.47 0.43 0.39
0.51 0.56 0.59 0.59 0.61 0.60 0.60 0.51 0.49 0.50 0.55 0.62 0.63 0.62 0.54 0.46 0.42 0.46 0.66 0.67 0.65 0.51 0.35 0.33 0.26 0.25 0.46 0.40 0.41 0.40 0.42 0.32 0.44 0.37 0.40 0.43 0.38 0.34 0.37 0.40 0.43 0.43 0.44 0.45 0.45 0.46 0.47 0.45 0.44 0.42 0.40 0.36 0.32 0.30
0.55 0.57 0.57 0.59 0.61 0.62 0.59 0.50 0.50 0.56 0.61 0.61 0.52 0.40 0.34 0.45 0.62 0.63 0.54 0.43 0.45 0.44 0.42 0.32 0.37 0.28 0.36 0.33 0.31 0.31 0.33 0.28 0.24 0.29 0.39 0.34 0.32 0.38 0.39 0.41 0.43 0.42 0.41 0.42 0.41 0.40 0.40 0.37 0.35 0.34 0.32 0.29 0.28 0.29
0.58 0.58 0.59 0.61 0.61 0.61 0.58 0.52 0.53 0.55 0.54 0.45 0.38 0.35 0.47 0.58 0.50 0.41 0.33 0.32 0.32 0.28 0.32 0.33 0.30 0.25 0.36 0.25 0.25 0.31 0.26 0.27 0.21 0.25 0.27 0.26 0.24 0.31 0.38 0.39 0.39 0.43 0.46 0.44 0.41 0.40 0.38 0.34 0.31 0.28 0.26 0.28 0.30 0.30
0.57 0.59 0.61 0.61 0.64 0.64 0.62 0.57 0.57 0.51 0.47 0.44 0.42 0.47 0.48 0.41 0.35 0.28 0.26 0.29 0.25 0.21 0.26 0.24 0.25 0.29 0.32 0.36 0.29 0.30 0.25 0.27 0.19 0.31 0.26 0.21 0.26 0.32 0.36 0.38 0.42 0.43 0.41 0.38 0.37 0.33 0.31 0.28 0.28 0.28 0.28 0.29 0.31 0.31
0.52 0.59 0.60 0.61 0.62 0.62 0.62 0.60 0.56 0.51 0.49 0.44 0.37 0.35 0.32 0.31 0.24 0.22 0.18 0.21 0.22 0.27 0.30 0.30 0.27 0.32 0.35 0.35 0.30 0.29 0.23 0.21 0.30 0.23 0.19 0.21 0.29 0.35 0.38 0.40 0.40 0.40 0.37 0.32 0.29 0.29 0.29 0.29 0.30 0.30 0.29 0.30 0.29 0.27
0.39 0.48 0.57 0.59 0.60 0.60 0.59 0.57 0.55 0.50 0.42 0.30 0.27 0.22 0.24 0.23 0.21 0.22 0.22 0.23 0.28 0.29 0.31 0.33 0.31 0.31 0.34 0.29 0.29 0.22 0.25 0.28 0.21 0.18 0.18 0.25 0.31 0.35 0.38 0.38 0.36 0.32 0.31 0.28 0.27 0.29 0.29 0.29 0.27 0.27 0.26 0.25 0.24 0.22
0.30 0.36 0.39 0.42 0.49 0.52 0.52 0.51 0.50 0.45 0.35 0.27 0.28 0.22 0.23 0.27 0.29 0.29 0.30 0.30 0.34 0.36 0.34 0.32 0.33 0.32 0.29 0.27 0.28 0.26 0.23 0.19 0.20 0.18 0.22 0.29 0.34 0.37 0.35 0.34 0.31 0.29 0.27 0.26 0.28 0.26 0.25 0.25 0.25 0.25 0.26 0.26 0.25 0.24
0.24 0.24 0.29 0.35 0.35 0.35 0.36 0.36 0.33 0.30 0.29 0.27 0.27 0.25 0.30 0.28 0.29 0.31 0.32 0.31 0.37 0.37 0.37 0.34 0.28 0.25 0.23 0.24 0.22 0.20 0.19 0.16 0.19 0.25 0.30 0.33 0.31 0.30 0.28 0.28 0.27 0.27 0.27 0.26 0.25 0.26 0.26 0.26 0.25 0.25 0.25 0.24 0.22 0.23
0.24 0.24 0.29 0.30 0.30 0.31 0.32 0.27 0.24 0.23 0.24 0.24 0.25 0.32 0.30 0.29 0.31 0.33 0.35 0.36 0.41 0.34 0.27 0.27 0.20 0.20 0.24 0.20 0.18 0.21 0.19 0.21 0.25 0.27 0.31 0.31 0.29 0.28 0.29 0.28 0.29 0.29 0.27 0.26 0.25 0.25 0.24 0.25 0.25 0.24 0.22 0.23 0.24 0.24
0.23 0.26 0.29 0.29 0.30 0.28 0.26 0.26 0.24 0.24 0.22 0.26 0.23 0.26 0.30 0.31 0.30 0.32 0.36 0.39 0.37 0.33 0.30 0.25 0.26 0.19 0.16 0.13 0.15 0.20 0.23 0.27 0.30 0.31 0.32 0.33 0.32 0.30 0.29 0.28 0.28 0.27 0.26 0.25 0.25 0.24 0.24 0.23 0.22 0.21 0.21 0.21 0.20 0.20
0.29 0.28 0.29 0.31 0.28 0.20 0.17 0.20 0.23 0.19 0.23 0.28 0.30 0.30 0.30 0.30 0.34 0.35 0.36 0.37 0.36 0.34 0.28 0.23 0.18 0.15 0.16 0.20 0.20 0.22 0.23 0.24 0.24 0.27 0.28 0.29 0.30 0.29 0.28 0.27 0.27 0.25 0.23 0.24 0.24 0.21 0.20 0.20 0.19 0.19 0.19 0.18 0.17 0.17
0.29 0.24 0.26 0.28 0.27 0.16 0.16 0.19 0.25 0.20 0.20 0.24 0.28 0.27 0.28 0.28 0.29 0.28 0.27 0.29 0.29 0.25 0.19 0.17 0.17 0.19 0.20 0.23 0.25 0.24 0.25 0.26 0.24 0.22 0.22 0.24 0.26 0.25 0.24 0.23 0.23 0.24 0.23 0.22 0.21 0.21 0.20 0.19 0.19 0.18 0.17 0.16 0.14 0.13
0.27 0.23 0.26 0.26 0.21 0.21 0.20 0.19 0.19 0.21 0.22 0.21 0.26 0.25 0.23 0.25 0.23 0.23 0.22 0.25 0.21 0.19 0.16 0.20 0.22 0.25 0.29 0.29 0.28 0.27 0.26 0.26 0.23 0.22 0.21 0.20 0.24 0.25 0.24 0.24 0.25 0.24 0.22 0.21 0.20 0.19 0.17 0.15 0.15 0.14 0.13 0.12 0.13 0.15
0.26 0.29 0.24 0.24 0.19 0.19 0.19 0.23 0.18 0.22 0.21 0.20 0.21 0.21 0.18 0.16 0.16 0.17 0.23 0.18 0.16 0.17 0.21 0.22 0.24 0.25 0.26 0.26 0.27 0.28 0.28 0.29 0.28 0.25 0.24 0.25 0.23 0.24 0.25 0.26 0.24 0.22 0.20 0.18 0.16 0.14 0.13 0.13 0.13 0.14 0.15 0.15 0.16 0.16
0.30 0.24 0.23 0.22 0.15 0.15 0.17 0.24 0.17 0.18 0.15 0.17 0.21 0.17 0.16 0.16 0.20 0.26 0.19 0.20 0.19 0.22 0.25 0.26 0.27 0.28 0.25 0.27 0.28 0.28 0.26 0.23 0.22 0.23 0.26 0.27 0.27 0.27 0.25 0.23 0.21 0.17 0.14 0.14 0.14 0.13 0.12 0.13 0.14 0.14 0.14 0.14 0.15 0.15
0.37 0.23 0.16 0.15 0.15 0.13 0.21 0.17 0.19 0.17 0.18 0.16 0.15 0.13 0.15 0.17 0.24 0.20 0.15 0.16 0.20 0.24 0.23 0.24 0.25 0.24 0.24 0.24 0.23 0.22 0.24 0.26 0.25 0.26 0.26 0.24 0.22 0.21 0.20 0.17 0.16 0.15 0.14 0.14 0.13 0.13 0.12 0.12 0.13 0.13 0.13 0.14 0.15 0.15
0.22 0.22 0.21 0.15 0.18 0.14 0.15 0.17 0.17 0.16 0.14 0.15 0.14 0.14 0.18 0.21 0.16 0.15 0.14 0.17 0.21 0.23 0.26 0.29 0.29 0.27 0.24 0.22 0.23 0.25 0.28 0.28 0.26 0.25 0.24 0.22 0.20 0.18 0.16 0.15 0.14 0.14 0.15 0.13 0.12 0.11 0.11 0.12 0.13 0.13 0.14 0.14 0.14 0.14
0.18 0.22 0.19 0.19 0.19 0.17 0.16 0.15 0.16 0.15 0.16 0.16 0.17 0.20 0.21 0.18 0.15 0.14 0.17 0.21 0.24 0.27 0.29 0.28 0.27 0.23 0.22 0.23 0.23 0.24 0.25 0.27 0.26 0.23 0.22 0.21 0.18 0.15 0.12 0.11 0.11 0.12 0.15 0.14 0.12 0.11 0.10 0.12 0.13 0.13 0.13 0.14 0.15 0.14
0.16 0.18 0.23 0.27 0.24 0.23 0.20 0.21 0.20 0.18 0.16 0.15 0.17 0.18 0.17 0.13 0.13 0.17 0.25 0.29 0.28 0.29 0.28 0.26 0.24 0.22 0.23 0.26 0.28 0.28 0.28 0.27 0.25 0.23 0.21 0.19 0.17 0.15 0.12 0.10 0.11 0.13 0.15 0.14 0.13 0.11 0.10 0.11 0.13 0.13 0.13 0.14 0.15 0.15
0.20 0.21 0.17 0.20 0.22 0.25 0.22 0.21 0.19 0.18 0.17 0.20 0.20 0.16 0.14 0.14 0.15 0.24 0.28 0.31 0.32 0.31 0.27 0.27 0.27 0.28 0.28 0.29 0.29 0.27 0.26 0.26 0.24 0.22 0.20 0.17 0.15 0.13 0.13 0.13 0.13 0.14 0.13 0.12 0.12 0.11 0.11 0.12 0.13 0.14 0.14 0.14 0.14 0.15
0.21 0.22 0.23 0.20 0.21 0.22 0.22 0.22 0.21 0.22 0.24 0.22 0.20 0.20 0.20 0.25 0.30 0.30 0.29 0.28 0.29 0.26 0.23 0.24 0.26 0.28 0.28 0.28 0.27 0.26 0.25 0.24 0.20 0.16 0.13 0.10 0.10 0.11 0.13 0.13 0.13 0.14 0.13 0.13 0.13 0.12 0.13 0.14 0.14 0.14 0.14 0.14 0.15 0.15
0.20 0.24 0.22 0.21 0.20 0.19 0.21 0.24 0.24 0.27 0.28 0.28 0.28 0.27 0.28 0.29 0.32 0.34 0.33 0.28 0.25 0.23 0.24 0.25 0.24 0.24 0.23 0.22 0.22 0.22 0.23 0.22 0.19 0.15 0.11 0.10 0.11 0.13 0.13 0.14 0.13 0.13 0.13 0.13 0.13 0.12 0.13 0.14 0.14 0.14 0.14 0.14 0.14 0.14
0.23 0.23 0.22 0.23 0.22 0.23 0.24 0.26 0.27 0.27 0.26 0.26 0.27 0.25 0.24 0.27 0.31 0.34 0.32 0.30 0.29 0.28 0.27 0.25 0.25 0.25 0.24 0.23 0.22 0.21 0.21 0.23 0.22 0.18 0.16 0.14 0.14 0.14 0.14 0.14 0.14 0.14 0.13 0.13 0.13 0.12 0.11 0.12 0.12 0.12 0.13 0.13 0.13 0.13
0.21 0.19 0.19 0.19 0.22 0.28 0.29 0.26 0.25 0.24 0.24 0.24 0.23 0.24 0.25 0.24 0.23 0.27 0.32 0.31 0.29 0.28 0.28 0.27 0.26 0.25 0.27 0.26 0.26 0.25 0.24 0.22 0.19 0.16 0.15 0.14 0.13 0.13 0.14 0.14 0.14 0.14 0.13 0.13 0.12 0.11 0.11 0.12 0.12 0.12 0.13 0.13 0.13 0.13
0.24 0.24 0.24 0.23 0.23 0.23 0.26 0.26 0.25 0.24 0.25 0.24 0.23 0.23 0.22 0.21 0.19 0.24 0.30 0.32 0.32 0.32 0.31 0.30 0.30 0.30 0.28 0.27 0.26 0.24 0.22 0.18 0.16 0.15 0.14 0.13 0.13 0.13 0.13 0.13 0.13 0.13 0.13 0.13 0.12 0.12 0.12 0.12 0.12 0.12 0.12 0.13 0.13 0.13
Wind_Speed
19 18 23 32 39 46 51 54 57 59 61 63 64 64 62 63 62 63 60 59 57 52 51 47 48 46 45 46 42 39 37 38 38 41 37 33 34 35 33 33 32 33 29 31 32 32 35 33 31 33 31 30 27 27
16 12 16 22 29 37 44 47 50 53 56 58 62 62 61 60 61 60 56 58 57 49 47 51 50 48 45 45 43 42 39 37 38 37 38 37 34 32 33 33 34 33 34 31 33 31 31 30 31 31 31 29 29 26
16 12 7 15 24 31 37 41 44 47 50 53 56 58 57 57 57 57 55 53 54 52 48 48 48 48 50 49 42 39 41 40 39 39 38 39 38 35 34 35 32 35 35 33 31 35 35 31 30 29 28 27 27 27
15 12 8 4 10 22 30 35 39 41 44 47 49 53 53 52 52 53 52 52 52 47 46 44 45 48 45 48 48 45 39 38 39 38 36 36 35 34 34 33 33 32 29 32 34 33 29 31 32 29 27 26 26 26
19 14 10 6 5 10 19 27 32 35 38 40 41 44 47 48 47 47 47 47 49 47 36 44 44 44 45 45 45 46 44 42 38 37 39 38 37 34 34 34 35 34 33 32 33 34 34 31 31 28 27 28 27 27
22 17 14 10 8 10 16 22 28 32 35 36 36 38 40 40 40 38 38 45 46 47 40 30 33 41 43 43 43 43 43 43 42 40 38 38 38 36 36 38 40 39 39 35 34 32 31 29 27 28 27 26 26 26
24 20 19 17 14 15 17 21 26 31 34 34 34 35 34 35 36 35 31 30 41 40 36 32 34 31 31 35 38 40 39 41 42 42 44 43 41 39 37 38 37 38 37 34 31 28 27 28 28 26 26 26 26 27
27 26 26 22 18 19 24 23 23 30 33 33 32 31 30 28 27 28 33 20 33 31 29 29 27 30 33 30 29 31 33 35 35 36 36 37 37 38 38 41 38 35 33 31 30 30 30 27 27 27 27 27 27 28
29 31 32 29 18 16 32 31 30 33 34 33 31 28 24 23 21 21 22 23 26 26 24 22 22 22 26 26 27 28 29 31 33 35 35 35 36 37 37 37 36 31 31 30 29 28 27 26 25 25 26 27 28 29
28 33 36 34 20 24 41 41 37 35 33 31 26 22 19 23 20 20 18 20 17 17 18 18 19 18 22 22 24 24 25 26 28 31 31 34 35 36 33 33 32 29 27 26 25 26 24 24 25 25 25 26 25 26
27 32 35 35 35 38 43 41 38 35 31 25 20 17 20 22 17 15 16 17 17 17 19 22 21 18 19 19 20 22 22 23 24 25 27 28 30 29 27 27 26 25 25 24 23 23 22 23 23 22 21 22 23 23
25 30 33 35 35 37 38 36 33 26 23 21 20 19 16 15 12 12 13 14 14 17 16 16 16 16 16 16 17 19 20 20 21 19 20 22 23 23 22 22 21 21 20 20 20 20 19 19 19 19 20 20 20 20
22 24 27 29 30 32 32 30 27 27 25 19 15 13 11 10 9 12 13 12 13 12 13 13 13 15 15 16 15 15 16 17 15 17 18 18 16 17 17 17 17 17 17 16 15 16 16 17 17 18 18 18 18 19
18 20 22 23 25 25 25 24 21 17 14 10 10 10 9 9 9 8 10 11 12 13 13 12 10 9 10 11 10 11 13 11 12 13 13 13 14 14 15 15 15 15 14 14 14 15 15 15 17 18 19 19 19 20
9 12 14 16 16 17 16 14 12 10 8 7 7 7 9 8 6 8 9 8 8 11 11 10 9 8 9 10 10 10 10 10 11 11 11 11 12 13 15 14 14 14 13 14 14 15 17 18 19 20 20 20 21 22
5 5 6 5 6 6 7 8 7 6 5 5 5 5 6 5 6 6 8 8 10 12 11 9 8 8 9 9 9 10 9 9 8 8 7 9 11 12 12 12 12 13 14 15 16 17 18 18 18 19 21 21 22 23
4 3 1 0 2 5 5 5 4 4 4 4 4 4 4 4 4 5 7 8 12 11 10 9 8 8 5 7 8 7 8 7 7 7 8 9 10 10 10 11 12 13 14 14 15 15 16 17 18 20 22 23 24 25
3 2 1 1 2 5 5 5 6 6 6 6 6 6 6 5 6 6 8 10 10 8 8 7 6 7 7 7 7 9 7 6 6 7 8 9 9 9 10 10 11 12 12 13 14 15 17 19 20 22 24 25 26 26
4 2 2 2 2 3 3 4 6 7 8 9 9 8 8 7 7 9 8 8 8 8 8 7 6 7 7 7 6 6 7 6 6 6 6 7 8 9 9 9 10 12 13 14 16 18 20 21 22 23 25 26 28 29
3 2 2 1 3 2 2 2 3 3 5 6 8 8 8 7 8 8 8 6 6 6 5 5 5 4 5 5 5 5 6 6 6 6 7 8 8 9 10 11 12 13 14 16 17 18 20 22 24 25 27 29 31 32
2 2 1 2 3 3 3 4 4 6 8 8 10 9 8 8 8 7 6 6 5 6 5 5 5 4 4 4 5 5 6 6 7 7 8 8 10 10 11 12 12 14 15 17 19 21 22 23 26 28 30 30 30 30
3 2 2 2 3 3 3 3 5 7 6 8 9 7 6 6 5 6 6 5 5 6 6 6 6 6 5 5 5 5 6 6 7 7 7 8 9 10 11 12 13 15 17 18 19 21 23 25 27 27 27 27 27 26
5 4 4 4 3 3 4 5 5 6 5 7 6 5 4 4 5 5 4 6 7 7 7 7 7 7 6 7 6 6 7 7 8 8 8 9 9 10 11 13 14 15 16 18 20 22 24 25 25 25 26 25 22 21
6 6 6 6 6 6 5 6 6 6 5 6 6 5 5 5 5 5 6 6 6 6 6 7 6 6 6 7 7 7 7 7 7 7 8 9 10 11 11 12 14 16 17 18 20 22 23 24 24 22 21 20 18 17
8 8 7 7 7 6 7 6 6 6 7 7 6 5 5 5 4 5 6 6 7 7 7 7 6 6 6 6 6 7 7 7 7 8 9 8 9 10 11 13 14 16 17 19 21 22 23 22 20 20 19 18 16 15
11 11 9 10 9 8 9 8 9 9 7 7 7 6 5 5 5 6 5 6 7 7 8 8 7 6 5 5 5 6 6 6 7 7 8 9 10 11 12 14 15 18 19 20 20 21 21 20 18 18 17 15 13 12
14 12 12 12 10 10 8 8 9 8 8 8 8 7 5 5 7 6 5 6 5 6 7 6 6 5 5 5 4 5 5 5 6 7 7 9 10 12 14 15 16 18 19 19 20 20 19 18 17 16 14 13 11 10
15 14 14 14 11 11 10 10 10 10 10 9 7 8 7 7 7 6 5 6 6 6 6 5 5 5 5 4 4 4 4 4 4 6 7 9 11 13 13 14 15 17 18 19 20 19 17 16 15 13 12 10 9 8
16 16 15 14 13 12 13 12 12 12 11 11 9 9 8 7 6 6 5 6 6 6 6 5 4 4 3 3 4 4 5 5 6 8 10 11 12 14 14 15 16 18 18 19 18 17 15 14 12 11 9 8 6 5
18 18 16 16 16 16 15 14 13 13 13 13 11 9 8 7 7 7 7 7 7 7 7 7 6 6 5 5 5 6 7 8 9 9 10 11 12 13 13 15 17 18 18 17 16 15 14 12 10 9 8 6 5 4
20 20 18 17 17 17 16 16 15 14 13 13 14 13 12 11 10 9 9 9 9 9 8 8 8 8 7 7 7 7 8 9 9 9 10 11 11 11 13 15 17 17 17 16 15 14 13 11 9 7 6 5 4 3
20 20 19 18 17 17 17 16 16 16 16 15 15 14 14 12 13 13 12 12 12 11 11 10 10 10 10 9 8 8 8 7 7 8 9 10 11 12 14 16 17 17 16 15 14 13 12 11 8 7 5 4 3 2
15 16 16 15 14 15 15 14 13 13 14 15 17 17 17 15 15 13 12 12 12 12 11 11 9 9 8 7 7 6 6 6 7 8 9 10 12 13 15 16 16 15 14 14 13 12 11 10 8 6 5 4 3 3
Wind_Direction
308 272 247 233 228 225 224 224 225 225 225 225 225 226 226 226 226 227 232 231 232 238 240 238 239 240 239 239 241 242 241 243 244 244 247 248 251 249 252 254 254 252 256 261 261 267 269 269 270 265 275 276 274 276
339 300 251 234 227 223 222 223 224 224 224 224 224 223 224 225 225 227 231 231 231 236 240 237 239 239 240 241 240 239 244 242 243 248 250 252 252 252 251 255 254 256 257 260 260 265 271 273 271 275 271 271 272 273
354 353 306 243 231 225 223 223 223 222 222 222 221 221 222 223 224 225 228 229 229 234 241 238 237 238 238 240 241 242 244 245 245 250 252 256 257 255 254 257 258 259 258 261 264 267 266 268 274 274 272 270 272 274
2 359 356 326 233 225 224 221 220 220 219 218 218 218 218 220 221 223 226 228 228 234 237 239 239 237 239 238 239 242 245 245 246 249 251 251 253 252 260 260 255 257 256 260 266 267 270 268 267 267 269 271 273 276
5 359 351 329 268 223 215 213 213 212 211 210 212 213 214 216 219 221 224 227 226 226 238 239 239 238 236 237 239 240 243 246 247 247 248 250 252 254 256 259 258 257 259 261 265 266 264 266 265 266 270 271 272 273
4 358 348 322 286 242 218 210 207 205 204 203 205 205 206 209 210 215 223 225 224 225 230 236 239 237 236 236 238 240 242 241 244 246 250 250 252 253 257 258 260 259 260 262 266 265 266 262 265 267 268 269 271 274
1 353 342 325 288 247 222 209 204 201 198 198 198 197 200 203 208 213 220 223 215 217 225 232 235 237 235 237 239 240 241 244 247 250 250 251 252 250 255 257 262 259 258 258 259 263 263 265 266 265 264 267 271 274
359 353 343 328 295 245 212 197 189 186 186 183 183 185 188 195 202 212 216 217 203 212 221 228 235 233 234 236 240 241 240 243 246 248 249 248 250 250 253 258 262 258 254 257 259 260 258 261 264 265 268 270 272 275
3 360 354 343 313 223 189 176 163 159 161 166 167 170 177 189 194 201 192 190 203 212 216 222 224 229 226 233 238 241 244 247 250 249 249 249 249 250 253 255 252 251 255 255 259 258 256 257 259 263 266 271 275 278
13 13 13 18 43 143 159 159 157 156 156 156 160 168 176 182 169 171 187 195 198 204 209 220 223 232 228 235 240 243 247 249 252 250 248 248 252 252 256 252 248 247 249 252 254 255 254 256 260 266 270 274 275 278
27 29 35 50 77 114 138 146 149 150 152 158 161 165 165 171 185 194 199 206 215 220 222 224 227 232 240 242 246 247 250 250 251 250 246 249 252 248 248 245 245 246 243 245 249 253 257 260 263 266 268 273 278 281
39 47 55 66 86 110 127 137 142 149 154 157 156 154 160 175 188 195 203 208 217 222 222 224 229 233 238 244 244 240 245 244 247 239 243 249 250 245 238 233 235 237 236 241 247 252 256 258 260 264 270 273 278 281
51 58 64 74 91 106 119 128 132 137 140 144 150 163 174 183 186 196 202 212 214 212 218 224 230 232 243 238 236 239 238 240 239 240 249 251 243 231 226 224 226 227 233 239 245 251 254 258 263 267 271 276 279 280
58 67 75 84 94 107 117 123 130 137 149 159 165 171 180 198 206 206 211 219 227 220 213 217 229 230 219 215 222 223 229 229 235 244 247 244 225 220 219 218 219 225 232 240 247 252 255 261 267 272 274 276 277 279
72 76 87 85 99 111 117 129 137 145 153 157 168 193 207 219 224 224 217 215 215 203 203 203 203 210 209 210 219 222 219 234 241 248 252 229 217 211 210 216 221 228 237 246 252 257 263 268 271 275 277 278 279 280
79 93 98 90 114 126 142 151 153 162 166 178 193 202 207 209 224 231 214 209 206 192 191 195 199 206 211 209 214 220 224 239 249 244 235 204 196 201 210 217 226 236 245 255 262 266 271 273 275 278 280 281 282 282
72 103 47 120 171 169 161 172 188 195 197 209 223 198 195 179 172 167 167 163 162 164 172 177 181 199 193 218 224 230 242 243 230 215 207 202 202 215 226 235 242 250 259 266 269 272 274 277 280 283 285 286 286 286
54 23 353 308 198 194 222 233 226 226 234 229 214 214 198 190 174 166 163 165 172 191 194 205 209 221 225 233 241 238 231 225 221 214 217 220 227 235 242 248 255 259 264 269 272 276 281 284 286 286 287 288 288 289
347 0 7 24 171 191 229 257 248 243 244 226 215 211 202 200 200 193 190 201 208 214 219 232 242 241 241 244 224 205 198 199 203 215 226 232 237 243 250 256 261 267 271 275 280 284 287 289 289 290 291 292 291 291
348 349 354 22 148 127 103 84 113 126 162 175 174 182 189 192 193 194 199 206 203 201 204 200 199 198 196 198 196 201 211 220 230 238 247 252 253 255 261 267 272 275 280 286 290 291 293 294 294 294 295 295 294 294
337 353 56 111 126 115 109 115 103 122 130 133 143 142 143 147 151 158 165 172 173 185 194 202 193 197 209 217 224 230 232 236 247 255 257 257 260 267 273 277 280 284 288 291 293 296 298 298 298 299 298 298 297 297
257 282 207 183 154 142 132 129 137 137 130 142 145 146 148 158 171 183 184 192 208 218 216 211 211 219 232 239 243 242 242 244 254 267 271 263 268 274 278 283 288 292 295 296 299 300 302 303 304 303 303 302 301 300
254 240 223 213 194 193 199 170 161 163 155 167 166 168 186 192 202 193 218 226 232 235 231 227 226 235 236 242 246 256 260 258 264 268 273 279 281 283 287 290 292 296 300 302 305 306 308 309 308 307 306 305 303 302
237 228 222 220 210 215 204 207 198 187 186 188 193 206 210 215 213 232 243 243 238 231 228 219 221 228 244 249 257 261 265 261 266 274 278 285 291 295 296 298 301 303 305 308 310 312 313 313 313 313 313 312 308 306
229 235 220 230 222 210 209 213 211 203 204 205 202 217 219 213 224 242 247 244 226 227 225 224 232 241 253 256 258 256 260 258 268 275 285 288 296 303 307 309 310 311 312 314 315 317 317 316 315 316 316 314 311 310
229 232 219 218 222 214 213 210 211 211 205 211 215 214 218 227 240 253 257 239 229 228 229 230 236 242 249 253 258 262 265 265 271 282 289 292 298 303 305 309 312 314 317 318 318 321 320 319 317 319 318 317 315 313
230 231 224 223 221 218 219 218 210 207 211 215 218 218 223 235 249 255 251 232 225 224 212 208 212 227 244 256 263 269 271 276 280 287 297 304 309 311 311 311 314 316 319 321 321 321 320 319 320 319 319 319 317 314
229 227 222 223 220 220 218 219 217 217 218 217 213 222 220 230 246 244 234 228 215 201 200 214 229 244 248 252 253 265 280 286 298 306 313 317 319 320 323 324 324 324 325 326 326 326 323 321 320 320 321 319 318 317
227 226 221 224 225 225 224 221 224 224 221 215 219 228 236 239 243 237 230 210 201 200 209 221 243 241 244 251 262 268 274 281 295 304 307 311 316 318 321 325 328 329 329 330 330 330 329 328 326 325 326 325 323 324
227 222 224 225 222 226 228 224 228 230 229 225 226 231 236 237 239 234 224 222 223 226 231 233 236 238 246 252 268 285 291 289 296 303 307 311 314 318 320 324 327 329 330 330 331 333 334 333 331 330 331 329 329 331
226 225 226 227 229 229 228 228 232 233 233 231 235 233 236 237 239 239 236 236 233 233 235 241 248 249 251 257 266 281 294 297 300 304 311 318 320 322 324 326 328 330 331 332 330 330 331 328 326 325 325 324 319 309
222 223 223 226 229 228 228 231 233 235 235 233 235 234 236 237 239 244 242 239 237 239 241 242 245 249 254 258 264 278 289 290 297 307 315 321 324 326 328 330 331 331 333 334 333 332 330 330 322 312 305 305 301 282
211 214 216 217 221 222 224 223 229 235 236 235 236 233 234 233 239 241 241 240 239 237 235 239 241 242 243 247 253 269 283 295 306 314 320 325 328 330 331 333 334 335 335 335 334 334 332 329 321 306 288 279 266 241